Weather in Novoye

Russia / Sakhalin District     48°53′07″N   142°56′35″E
В апреле 2022 года жителям России запретили посещать сайт meteo.paraplan.net по решению Генеральной прокуратуры. Аудитория сайта уменьшилась в 10 раз. Владельцы сайта не видят смысла в поддержке погодного сервера в таких условиях. Сайт будет закрыт в октябре.
temp.,
°C
wind,
m/s
gust,
m/s
humid.,
%
clouds,
%
prec.,
mm/h
press.,
hPa
HPBL,
m
25 september, sun
sun2523:00+14s598882 0.5 999227
02:00+13sw713810 0.1 998765
05:00+12sw59853 0.1 998276
08:00+14w6118391 0.0 1001536
11:00+13wnw7127998 0.0 10041023
14:00+13wnw71376100 0.0 10061222
17:00+14wnw7127110 0.0 1009985
20:00+12w36710 0.0 1012154
26 september, mon
mon2623:00+11w46795 0.0 1014129
02:00+10wsw4483100 0.0 101491
05:00+10wnw3383100 0.0 101583
08:00+10w01806 0.0 101672
11:00+12ese237731 0.0 1015275
14:00+14sse46771 0.0 1013321
17:00+15s687924 0.0 1011343
20:00+13ssw56900 0.0 101175
27 september, tue
tue2723:00+12sw34910 0.0 101164
02:00+12wsw23903 0.0 100957
05:00+13wnw388675 0.0 1009219
08:00+12w511660 0.0 1011547
11:00+13w611530 0.0 10111011
14:00+15w58435 0.0 1011460
17:00+15w474694 0.0 1012430
20:00+12sw45580 0.0 101373
28 september, wed
wed2823:00+10w44630 0.0 101477
02:00+10wsw33700 0.0 101373
05:00+9wsw22722 0.0 101277
08:00+11sw44874 0.0 1011161
11:00+15ssw68744 0.0 1009299
14:00+18ssw711624 0.0 1006325
17:00+18ssw712650 0.0 1005320
20:00+16ssw6126361 0.0 1004217
29 september, thu
thu2923:00+17sw510648 0.0 1004176
02:00+13sw448870 0.0 100543
05:00+13sw3388100 0.0 100734
08:00+13nnw228980 0.0 101040
11:00+13ene558436 0.0 1012460
14:00+12se327815 0.0 1013334
17:00+12sse447612 0.0 1014424
20:00+10sse458199 0.0 1016458